Torna al catalogo

STARLINK-35031

AttivoComunicazioniVLEO
NORAD 65404·PAYLOAD·🇺🇸 United States

Lanciato Aug 31, 2025 da Cape Canaveral Space Force Station

Loading…

Prossimi Passaggi (prossime 24 ore)

TLE

AggiornatoSource: CelesTrak SupGP

Epoca: Sep 14, 2026, 23:02 UTC

1 65404C 25192A   26257.96020833  .00058648  00000+0  17334-2 0  2578
2 65404  53.1589  79.6391 0001063  87.6321 218.2980 15.34349628    10

Traccia STARLINK-35031 in tempo reale con AllMySat

Download on the App Store